Location: Huberhof
(49.2050°N, 7.4980°E)
Time: 05:28:58
(UTC+00:00)

SAR-Lupe-4 - Pass Details

Date: 29 October 2020
Orbit: 481 x 484 km, 98.2° (Epoch: 22 November)

Event Time Altitude Azimuth Distance (km) Brightness Sun altitude
Rises 17:03:30 0° 21° (NNE) 2,557 6.9 -8.7°
Reaches altitude 10° 17:05:41 10° 30° (NNE) 1,671 5.9 -9.1°
Maximum altitude 17:09:02 37° 99° (E) 764 4.1 -9.6°
Drops below altitude 10° 17:12:22 10° 168° (SSE) 1,657 6.2 -10.2°
Sets 17:14:31 0° 177° (S) 2,532 7.3 -10.5°
